• In United Kingdom
  • List of Countries
  • For 7 days
  • Water Temperature
  • Satellite Maps
  • Weather Map
  • Weather Widgets
  • user-avatar
    Login

    Hourly Weather Campeche

    Today, 25 November, Saturday

    Time Temperature Precipitation Wind Pressure Humidity
    00:00 +17°C° 0 mm 0 mps 760 mmHg 84%
    01:00 +17°C° 0 mm 0 mps 760 mmHg 85%
    02:00 +18°C° 0 mm 1 mps 760 mmHg 86%
    03:00 +18°C° 0 mm 1 mps 759 mmHg 86%
    04:00 +18°C° 0 mm 1 mps 759 mmHg 87%
    05:00 +18°C° 0 mm 1 mps 760 mmHg 87%
    06:00 +18°C° 0 mm 1 mps 760 mmHg 87%
    07:00 +20°C° 0 mm 1 mps 760 mmHg 78%
    08:00 +23°C° 0 mm 1 mps 761 mmHg 68%
    09:00 +25°C° 0 mm 1 mps 761 mmHg 58%
    10:00 +28°C° 0 mm 1 mps 761 mmHg 53%
    11:00 +28°C° 0 mm 0 mps 760 mmHg 47%
    12:00 +30°C° 0 mm 0 mps 760 mmHg 42%
    13:00 +30°C° 0 mm 0 mps 759 mmHg 41%
    14:00 +30°C° 0 mm 0 mps 758 mmHg 41%
    15:00 +30°C° 0 mm 0 mps 758 mmHg 40%
    16:00 +29°C° 0 mm 1 mps 758 mmHg 50%
    17:00 +27°C° 0 mm 1 mps 758 mmHg 59%
    18:00 +24°C° 0 mm 1 mps 759 mmHg 68%
    19:00 +23°C° 0 mm 1 mps 759 mmHg 73%
    20:00 +22°C° 0 mm 1 mps 760 mmHg 77%
    21:00 +21°C° 0 mm 1 mps 760 mmHg 81%
    22:00 +21°C° 0 mm 1 mps 760 mmHg 82%
    23:00 +20°C° 0 mm 1 mps 760 mmHg 82%

    Tomorrow, 26 November, Sunday

    Time Temperature Precipitation Wind Pressure Humidity
    00:00 +19°C° 0 mm 1 mps 761 mmHg 83%
    01:00 +19°C° 0 mm 1 mps 760 mmHg 84%
    02:00 +19°C° 0 mm 1 mps 760 mmHg 86%
    03:00 +18°C° 0 mm 1 mps 760 mmHg 87%
    04:00 +18°C° 0 mm 1 mps 760 mmHg 88%
    05:00 +18°C° 0 mm 1 mps 761 mmHg 88%
    06:00 +18°C° 0 mm 1 mps 761 mmHg 89%
    07:00 +20°C° 0 mm 1 mps 762 mmHg 79%
    08:00 +23°C° 0 mm 1 mps 762 mmHg 69%
    09:00 +26°C° 0 mm 1 mps 763 mmHg 59%
    10:00 +27°C° 0 mm 1 mps 762 mmHg 54%
    11:00 +29°C° 0 mm 1 mps 762 mmHg 49%
    12:00 +30°C° 0 mm 1 mps 761 mmHg 45%
    13:00 +30°C° 0 mm 2 mps 761 mmHg 45%
    14:00 +30°C° 0 mm 2 mps 760 mmHg 45%
    15:00 +29°C° 0 mm 2 mps 760 mmHg 46%
    16:00 +27°C° 0 mm 2 mps 760 mmHg 54%
    17:00 +25°C° 0 mm 2 mps 760 mmHg 62%
    18:00 +23°C° 0 mm 1 mps 760 mmHg 70%
    19:00 +23°C° 0 mm 1 mps 761 mmHg 74%
    20:00 +22°C° 0 mm 1 mps 761 mmHg 78%
    21:00 +21°C° 0 mm 1 mps 762 mmHg 82%
    22:00 +20°C° 0 mm 1 mps 762 mmHg 83%
    23:00 +20°C° 0 mm 1 mps 762 mmHg 85%

    Day after tomorrow, 27 November, Monday

    Time Temperature Precipitation Wind Pressure Humidity
    00:00 +19°C° 0 mm 1 mps 762 mmHg 86%
    01:00 +19°C° 0 mm 1 mps 762 mmHg 87%
    02:00 +19°C° 0 mm 1 mps 761 mmHg 88%
    03:00 +16°C° 0 mm 0 mps 761 mmHg 88%
    04:00 +16°C° 0 mm 0 mps 761 mmHg 89%
    05:00 +16°C° 0 mm 0 mps 762 mmHg 90%
    06:00 +16°C° 0 mm 0 mps 762 mmHg 91%
    07:00 +18°C° 0 mm 0 mps 762 mmHg 80%
    08:00 +21°C° 0 mm 0 mps 762 mmHg 69%
    09:00 +24°C° 0 mm 0 mps 763 mmHg 58%
    10:00 +27°C° 0 mm 1 mps 762 mmHg 53%
    11:00 +29°C° 0 mm 1 mps 761 mmHg 48%
    12:00 +30°C° 0 mm 1 mps 761 mmHg 43%
    13:00 +29°C° 0 mm 1 mps 760 mmHg 45%
    14:00 +29°C° 0 mm 2 mps 759 mmHg 47%
    15:00 +29°C° 0 mm 2 mps 759 mmHg 48%
    16:00 +27°C° 0 mm 2 mps 759 mmHg 56%
    17:00 +25°C° 0 mm 1 mps 759 mmHg 64%
    18:00 +23°C° 0 mm 1 mps 759 mmHg 72%
    19:00 +22°C° 0 mm 1 mps 760 mmHg 75%
    20:00 +22°C° 0 mm 1 mps 760 mmHg 78%
    21:00 +21°C° 0 mm 1 mps 761 mmHg 81%
    22:00 +20°C° 0 mm 1 mps 761 mmHg 84%
    23:00 +20°C° 0 mm 1 mps 761 mmHg 87%

    28 November, Tuesday

    Time Temperature Precipitation Wind Pressure Humidity
    00:00 +19°C° 0 mm 1 mps 760 mmHg 89%
    01:00 +19°C° 0 mm 1 mps 760 mmHg 92%
    02:00 +17°C° 0 mm 0 mps 760 mmHg 94%
    03:00 +17°C° 0 mm 0 mps 759 mmHg 97%
    04:00 +17°C° 0 mm 0 mps 760 mmHg 97%
    05:00 +17°C° 0 mm 0 mps 760 mmHg 98%
    06:00 +17°C° 0 mm 0 mps 760 mmHg 98%
    07:00 +19°C° 0 mm 0 mps 760 mmHg 88%
    08:00 +24°C° 0 mm 1 mps 761 mmHg 78%
    09:00 +26°C° 0 mm 1 mps 761 mmHg 68%
    10:00 +28°C° 0 mm 1 mps 760 mmHg 60%
    11:00 +28°C° 0 mm 0 mps 760 mmHg 53%
    12:00 +30°C° 0 mm 0 mps 759 mmHg 46%
    13:00 +30°C° 0 mm 0 mps 759 mmHg 45%
    14:00 +32°C° 0 mm 1 mps 758 mmHg 45%
    15:00 +31°C° 0 mm 1 mps 757 mmHg 45%
    16:00 +29°C° 0 mm 1 mps 758 mmHg 55%
    17:00 +27°C° 0 mm 1 mps 758 mmHg 64%
    18:00 +25°C° 0 mm 1 mps 758 mmHg 74%
    19:00 +24°C° 0 mm 1 mps 759 mmHg 80%
    20:00 +23°C° 0 mm 1 mps 759 mmHg 85%
    21:00 +22°C° 0 mm 1 mps 760 mmHg 91%
    22:00 +22°C° 0 mm 1 mps 760 mmHg 93%
    23:00 +22°C° 0 mm 1 mps 759 mmHg 94%

    29 November, Wednesday

    Time Temperature Precipitation Wind Pressure Humidity
    00:00 +21°C° 0 mm 1 mps 759 mmHg 96%
    01:00 +21°C° 0 mm 1 mps 759 mmHg 97%
    02:00 +21°C° 0 mm 1 mps 759 mmHg 97%
    03:00 +21°C° 0 mm 1 mps 759 mmHg 98%
    04:00 +20°C° 0 mm 1 mps 759 mmHg 98%
    05:00 +20°C° 0 mm 1 mps 759 mmHg 98%
    06:00 +20°C° 0 mm 1 mps 760 mmHg 98%
    07:00 +23°C° 0 mm 1 mps 760 mmHg 86%
    08:00 +25°C° 0 mm 1 mps 761 mmHg 75%
    09:00 +28°C° 0 mm 1 mps 761 mmHg 64%
    10:00 +28°C° 0 mm 0 mps 761 mmHg 55%
    11:00 +30°C° 0 mm 0 mps 760 mmHg 47%
    12:00 +32°C° 0 mm 0 mps 760 mmHg 39%
    13:00 +32°C° 0 mm 0 mps 759 mmHg 39%
    14:00 +33°C° 0 mm 1 mps 759 mmHg 39%
    15:00 +33°C° 0 mm 1 mps 758 mmHg 39%
    16:00 +31°C° 0 mm 1 mps 759 mmHg 50%
    17:00 +28°C° 0 mm 1 mps 759 mmHg 60%
    18:00 +26°C° 0 mm 2 mps 760 mmHg 70%
    19:00 +25°C° 0 mm 1 mps 760 mmHg 77%
    20:00 +24°C° 0 mm 1 mps 761 mmHg 84%
    21:00 +23°C° 0 mm 1 mps 761 mmHg 91%
    22:00 +23°C° 0 mm 1 mps 761 mmHg 93%
    23:00 +22°C° 0 mm 1 mps 761 mmHg 95%

    30 November, Thursday

    Time Temperature Precipitation Wind Pressure Humidity
    00:00 +20°C° 0 mm 0 mps 761 mmHg 97%
    01:00 +20°C° 0 mm 0 mps 760 mmHg 98%
    02:00 +20°C° 0 mm 0 mps 760 mmHg 98%
    03:00 +19°C° 0 mm 0 mps 760 mmHg 99%
    04:00 +19°C° 0 mm 0 mps 760 mmHg 99%
    05:00 +19°C° 0 mm 0 mps 760 mmHg 99%
    06:00 +19°C° 0 mm 0 mps 761 mmHg 99%
    07:00 +21°C° 0 mm 0 mps 761 mmHg 88%
    08:00 +24°C° 0 mm 0 mps 761 mmHg 78%
    09:00 +26°C° 0 mm 0 mps 762 mmHg 68%
    10:00 +28°C° 0 mm 0 mps 761 mmHg 60%
    11:00 +31°C° 0 mm 1 mps 761 mmHg 52%
    12:00 +33°C° 0 mm 1 mps 760 mmHg 44%
    13:00 +33°C° 0 mm 1 mps 760 mmHg 45%
    14:00 +32°C° 0 mm 2 mps 759 mmHg 46%
    15:00 +32°C° 0 mm 2 mps 759 mmHg 47%
    16:00 +30°C° 0 mm 2 mps 759 mmHg 56%
    17:00 +28°C° 0 mm 2 mps 759 mmHg 64%
    18:00 +26°C° 0 mm 2 mps 760 mmHg 73%
    19:00 +25°C° 0 mm 1 mps 760 mmHg 80%
    20:00 +24°C° 0 mm 1 mps 761 mmHg 86%
    21:00 +23°C° 0 mm 1 mps 761 mmHg 92%
    22:00 +23°C° 0 mm 1 mps 761 mmHg 94%
    23:00 +23°C° 0 mm 1 mps 761 mmHg 96%
    Show more